Time,TemperatureF,DewpointF,PressureIn,WindDirection,WindDirectionDegrees,WindSpeedMPH,WindSpeedGustMPH,Humidity,HourlyPrecipIn,Conditions,Clouds,dailyrainin,SolarRadiationWatts/m^2,SoftwareType,DateUTC
2013-05-12 00:02:00,68.6,34.2,30.37,NNW,343,0.0,0.0,28,0.00,,,0.00,0,WeatherHawk,2013-05-12 05:02:00,
2013-05-12 00:07:00,69.2,34.7,30.36,NNW,343,0.0,0.0,28,0.00,,,0.00,0,WeatherHawk,2013-05-12 05:07:00,
2013-05-12 00:13:00,66.3,33.9,30.37,NNW,343,0.0,0.0,30,0.00,,,0.00,0,WeatherHawk,2013-05-12 05:13:00,
2013-05-12 00:18:00,68.5,35.0,30.36,NNW,343,0.0,0.0,29,0.00,,,0.00,0,WeatherHawk,2013-05-12 05:18:00,
2013-05-12 00:23:00,68.2,34.7,30.37,NNW,338,2.0,0.0,29,0.00,,,0.00,1,WeatherHawk,2013-05-12 05:23:00,
2013-05-12 00:29:00,68.2,34.7,30.36,NW,317,3.0,0.0,29,0.00,,,0.00,0,WeatherHawk,2013-05-12 05:29:00,
2013-05-12 00:34:00,67.8,33.5,30.36,NW,316,2.0,0.0,28,0.00,,,0.00,1,WeatherHawk,2013-05-12 05:34:00,
2013-05-12 00:39:00,68.8,33.4,30.37,NNW,333,4.0,0.0,27,0.00,,,0.00,1,WeatherHawk,2013-05-12 05:39:00,
2013-05-12 00:44:00,68.7,33.4,30.37,NNE,27,0.0,0.0,27,0.00,,,0.00,0,WeatherHawk,2013-05-12 05:44:00,
2013-05-12 00:49:00,68.5,33.2,30.36,NNE,14,3.0,0.0,27,0.00,,,0.00,0,WeatherHawk,2013-05-12 05:49:00,
2013-05-12 00:54:00,68.5,33.2,30.37,North,9,3.0,0.0,27,0.00,,,0.00,0,WeatherHawk,2013-05-12 05:54:00,
2013-05-12 00:59:00,68.8,33.4,30.36,NNE,25,4.0,0.0,27,0.00,,,0.00,1,WeatherHawk,2013-05-12 05:59:00,
2013-05-12 01:04:00,68.4,33.1,30.37,North,351,0.0,0.0,27,0.00,,,0.00,0,WeatherHawk,2013-05-12 06:04:00,
2013-05-12 01:09:00,68.4,34.0,30.36,North,8,1.0,-999.0,28,0.00,,,0.00,0,WeatherHawk,2013-05-12 06:09:00,
2013-05-12 01:14:00,68.6,34.2,30.36,North,7,5.0,0.0,28,0.00,,,0.00,0,WeatherHawk,2013-05-12 06:14:00,
2013-05-12 01:19:00,68.4,34.9,30.36,NNE,12,4.0,0.0,29,0.00,,,0.00,0,WeatherHawk,2013-05-12 06:19:00,
2013-05-12 01:24:00,68.1,34.6,30.36,NE,35,2.0,0.0,29,0.00,,,0.00,0,WeatherHawk,2013-05-12 06:24:00,
2013-05-12 01:29:00,68.4,35.8,30.36,NNE,13,3.0,-999.0,30,0.00,,,0.00,0,WeatherHawk,2013-05-12 06:29:00,
2013-05-12 01:34:00,68.6,35.9,30.36,NNE,21,5.0,0.0,30,0.00,,,0.00,0,WeatherHawk,2013-05-12 06:34:00,
2013-05-12 01:39:00,68.2,35.6,30.36,NNE,23,3.0,-999.0,30,0.00,,,0.00,0,WeatherHawk,2013-05-12 06:39:00,
2013-05-12 01:44:00,68.3,33.9,30.36,NNE,21,6.0,0.0,28,0.00,,,0.00,1,WeatherHawk,2013-05-12 06:44:00,
2013-05-12 01:49:00,68.4,33.1,30.36,NNE,14,5.0,-999.0,27,0.00,,,0.00,0,WeatherHawk,2013-05-12 06:49:00,
2013-05-12 01:54:00,68.1,30.9,30.36,North,10,4.0,0.0,25,0.00,,,0.00,1,WeatherHawk,2013-05-12 06:54:00,
2013-05-12 01:59:00,67.7,30.6,30.36,NNE,26,5.0,0.0,25,0.00,,,0.00,1,WeatherHawk,2013-05-12 06:59:00,
2013-05-12 02:04:00,67.7,29.6,30.36,NE,36,5.0,0.0,24,0.00,,,0.00,0,WeatherHawk,2013-05-12 07:04:00,
2013-05-12 02:09:00,67.8,30.7,30.37,NNE,15,6.0,-999.0,25,0.00,,,0.00,0,WeatherHawk,2013-05-12 07:09:00,
2013-05-12 02:14:00,67.2,30.2,30.37,NE,44,2.0,0.0,25,0.00,,,0.00,0,WeatherHawk,2013-05-12 07:14:00,
2013-05-12 02:19:00,67.4,30.3,30.36,NE,45,5.0,0.0,25,0.00,,,0.00,0,WeatherHawk,2013-05-12 07:19:00,
2013-05-12 02:24:00,67.4,29.3,30.36,NE,40,10.0,0.0,24,0.00,,,0.00,1,WeatherHawk,2013-05-12 07:24:00,
2013-05-12 02:29:00,66.7,28.7,30.37,NNW,334,4.0,0.0,24,0.00,,,0.00,1,WeatherHawk,2013-05-12 07:29:00,
2013-05-12 02:34:00,67.1,28.1,30.37,NNE,25,8.0,0.0,23,0.00,,,0.00,0,WeatherHawk,2013-05-12 07:34:00,
2013-05-12 02:39:00,66.9,26.8,30.37,North,349,11.0,0.0,22,0.00,,,0.00,0,WeatherHawk,2013-05-12 07:39:00,
2013-05-12 02:44:00,66.6,25.4,30.36,SE,140,7.0,0.0,21,0.00,,,0.00,1,WeatherHawk,2013-05-12 07:44:00,
2013-05-12 02:49:00,66.3,25.2,30.37,NE,37,9.0,0.0,21,0.00,,,0.00,0,WeatherHawk,2013-05-12 07:49:00,
2013-05-12 02:54:00,66.4,24.2,30.36,NE,56,7.0,0.0,20,0.00,,,0.00,1,WeatherHawk,2013-05-12 07:54:00,
2013-05-12 02:59:00,65.5,25.7,30.38,NNW,333,1.0,0.0,22,0.00,,,0.00,0,WeatherHawk,2013-05-12 07:59:00,
2013-05-12 03:04:00,66.1,23.8,30.38,NNE,21,6.0,0.0,20,0.00,,,0.00,1,WeatherHawk,2013-05-12 08:04:00,
2013-05-12 03:09:00,65.9,24.9,30.37,NNE,26,7.0,0.0,21,0.00,,,0.00,0,WeatherHawk,2013-05-12 08:09:00,
2013-05-12 03:14:00,66.0,23.8,30.38,NNE,23,9.0,0.0,20,0.00,,,0.00,0,WeatherHawk,2013-05-12 08:14:00,
2013-05-12 03:19:00,65.8,23.6,30.38,NNE,26,10.0,0.0,20,0.00,,,0.00,0,WeatherHawk,2013-05-12 08:19:00,
2013-05-12 03:24:00,65.8,23.6,30.37,NNE,23,4.0,0.0,20,0.00,,,0.00,0,WeatherHawk,2013-05-12 08:24:00,
2013-05-12 03:29:00,65.1,23.1,30.38,NE,38,7.0,0.0,20,0.00,,,0.00,0,WeatherHawk,2013-05-12 08:29:00,
2013-05-12 03:34:00,65.4,22.1,30.38,NNE,17,7.0,0.0,19,0.00,,,0.00,0,WeatherHawk,2013-05-12 08:34:00,
2013-05-12 03:39:00,65.1,20.5,30.37,NNE,25,7.0,0.0,18,0.00,,,0.00,0,WeatherHawk,2013-05-12 08:39:00,
2013-05-12 03:44:00,64.9,21.7,30.38,NNE,32,5.0,0.0,19,0.00,,,0.00,0,WeatherHawk,2013-05-12 08:44:00,
2013-05-12 03:49:00,64.8,21.6,30.38,NNE,30,7.0,-999.0,19,0.00,,,0.00,0,WeatherHawk,2013-05-12 08:49:00,
2013-05-12 03:54:00,64.6,20.1,30.38,NNE,25,6.0,0.0,18,0.00,,,0.00,0,WeatherHawk,2013-05-12 08:54:00,
2013-05-12 03:59:00,64.5,18.7,30.38,NNE,18,5.0,0.0,17,0.00,,,0.00,0,WeatherHawk,2013-05-12 08:59:00,
2013-05-12 04:04:00,65.1,19.2,30.39,NNE,27,8.0,0.0,17,0.00,,,0.00,1,WeatherHawk,2013-05-12 09:04:00,
2013-05-12 04:09:00,64.7,17.5,30.38,NNE,20,9.0,0.0,16,0.00,,,0.00,1,WeatherHawk,2013-05-12 09:09:00,
2013-05-12 04:14:00,64.3,17.2,30.39,NE,45,1.0,-999.0,16,0.00,,,0.00,0,WeatherHawk,2013-05-12 09:14:00,
2013-05-12 04:19:00,63.9,16.8,30.38,North,1,3.0,0.0,16,0.00,,,0.00,0,WeatherHawk,2013-05-12 09:19:00,
2013-05-12 04:24:00,64.1,15.5,30.40,North,8,5.0,0.0,15,0.00,,,0.00,1,WeatherHawk,2013-05-12 09:24:00,
2013-05-12 04:29:00,63.6,15.2,30.39,North,351,3.0,0.0,15,0.00,,,0.00,0,WeatherHawk,2013-05-12 09:29:00,
2013-05-12 04:34:00,64.2,17.1,30.39,NE,46,6.0,0.0,16,0.00,,,0.00,0,WeatherHawk,2013-05-12 09:34:00,
2013-05-12 04:39:00,63.9,15.3,30.39,NNE,30,5.0,0.0,15,0.00,,,0.00,1,WeatherHawk,2013-05-12 09:39:00,
2013-05-12 04:44:00,63.3,14.9,30.40,West,278,1.0,0.0,15,0.00,,,0.00,0,WeatherHawk,2013-05-12 09:44:00,
2013-05-12 04:49:00,63.8,13.7,30.40,NE,54,7.0,-999.0,14,0.00,,,0.00,0,WeatherHawk,2013-05-12 09:49:00,
2013-05-12 04:54:00,63.6,11.9,30.39,North,4,10.0,0.0,13,0.00,,,0.00,0,WeatherHawk,2013-05-12 09:54:00,
2013-05-12 04:59:00,63.2,13.2,30.41,NNW,345,4.0,-999.0,14,0.00,,,0.00,0,WeatherHawk,2013-05-12 09:59:00,
2013-05-12 05:04:00,63.2,13.2,30.41,NW,312,7.0,0.0,14,0.00,,,0.00,1,WeatherHawk,2013-05-12 10:04:00,
2013-05-12 05:09:00,62.9,16.1,30.40,NNE,14,5.0,0.0,16,0.00,,,0.00,0,WeatherHawk,2013-05-12 10:09:00,
2013-05-12 05:14:00,62.3,12.5,30.41,ENE,63,3.0,0.0,14,0.00,,,0.00,1,WeatherHawk,2013-05-12 10:14:00,
2013-05-12 05:19:00,62.7,14.4,30.40,North,7,7.0,0.0,15,0.00,,,0.00,0,WeatherHawk,2013-05-12 10:19:00,
2013-05-12 05:24:00,62.5,12.7,30.40,North,11,9.0,-999.0,14,0.00,,,0.00,1,WeatherHawk,2013-05-12 10:24:00,
2013-05-12 05:29:00,61.7,15.1,30.41,East,84,3.0,0.0,16,0.00,,,0.00,0,WeatherHawk,2013-05-12 10:29:00,
2013-05-12 05:34:00,61.7,16.4,30.41,East,88,4.0,0.0,17,0.00,,,0.00,0,WeatherHawk,2013-05-12 10:34:00,
2013-05-12 05:39:00,61.8,15.1,30.41,East,87,6.0,0.0,16,0.00,,,0.00,0,WeatherHawk,2013-05-12 10:39:00,
2013-05-12 05:44:00,61.5,16.3,30.41,NNE,33,5.0,0.0,17,0.00,,,0.00,0,WeatherHawk,2013-05-12 10:44:00,
2013-05-12 05:49:00,61.2,14.6,30.42,ENE,72,3.0,0.0,16,0.00,,,0.00,1,WeatherHawk,2013-05-12 10:49:00,
2013-05-12 05:54:00,61.3,17.5,30.42,NE,38,4.0,0.0,18,0.00,,,0.00,0,WeatherHawk,2013-05-12 10:54:00,
2013-05-12 05:59:00,60.8,17.1,30.41,ENE,63,1.0,0.0,18,0.00,,,0.00,0,WeatherHawk,2013-05-12 10:59:00,
2013-05-12 06:04:00,61.6,15.0,30.42,NNE,20,5.0,0.0,16,0.00,,,0.00,0,WeatherHawk,2013-05-12 11:04:00,
2013-05-12 06:09:00,61.3,13.3,30.42,NNE,17,3.0,0.0,15,0.00,,,0.00,0,WeatherHawk,2013-05-12 11:09:00,
2013-05-12 06:14:00,60.8,15.8,30.42,NE,44,5.0,0.0,17,0.00,,,0.00,1,WeatherHawk,2013-05-12 11:14:00,
2013-05-12 06:19:00,60.5,14.1,30.43,WNW,291,0.0,0.0,16,0.00,,,0.00,2,WeatherHawk,2013-05-12 11:19:00,
2013-05-12 06:24:00,61.1,14.6,30.43,NNE,27,2.0,0.0,16,0.00,,,0.00,3,WeatherHawk,2013-05-12 11:24:00,
2013-05-12 06:29:00,60.8,17.0,30.43,East,92,4.0,0.0,18,0.00,,,0.00,5,WeatherHawk,2013-05-12 11:29:00,
2013-05-12 06:34:00,60.6,15.5,30.43,NE,55,1.0,-999.0,17,0.00,,,0.00,9,WeatherHawk,2013-05-12 11:34:00,
2013-05-12 06:39:00,60.1,16.5,30.45,ENE,69,2.0,0.0,18,0.00,,,0.00,13,WeatherHawk,2013-05-12 11:39:00,
2013-05-12 06:44:00,61.1,17.3,30.44,North,7,7.0,-999.0,18,0.00,,,0.00,17,WeatherHawk,2013-05-12 11:44:00,
2013-05-12 06:49:00,61.3,16.2,30.44,North,7,4.0,0.0,17,0.00,,,0.00,38,WeatherHawk,2013-05-12 11:49:00,
2013-05-12 06:54:00,61.4,14.8,30.46,North,10,1.0,0.0,16,0.00,,,0.00,49,WeatherHawk,2013-05-12 11:54:00,
2013-05-12 06:59:00,61.3,14.7,30.46,NNE,17,5.0,-999.0,16,0.00,,,0.00,60,WeatherHawk,2013-05-12 11:59:00,
2013-05-12 07:04:00,61.3,13.3,30.45,NNE,22,3.0,0.0,15,0.00,,,0.00,71,WeatherHawk,2013-05-12 12:04:00,
2013-05-12 07:09:00,61.7,15.0,30.45,NNE,25,0.0,-999.0,16,0.00,,,0.00,81,WeatherHawk,2013-05-12 12:09:00,
2013-05-12 07:14:00,61.8,13.7,30.45,ENE,61,1.0,0.0,15,0.00,,,0.00,96,WeatherHawk,2013-05-12 12:14:00,
2013-05-12 07:19:00,61.6,10.3,30.44,NE,42,7.0,-999.0,13,0.00,,,0.00,107,WeatherHawk,2013-05-12 12:19:00,
2013-05-12 07:24:00,61.9,12.2,30.45,NE,45,3.0,0.0,14,0.00,,,0.00,120,WeatherHawk,2013-05-12 12:24:00,
2013-05-12 07:29:00,61.9,8.8,30.45,NNE,26,4.0,0.0,12,0.00,,,0.00,127,WeatherHawk,2013-05-12 12:29:00,
2013-05-12 07:34:00,62.3,7.1,30.45,NNW,342,7.0,0.0,11,0.00,,,0.00,148,WeatherHawk,2013-05-12 12:34:00,
2013-05-12 07:39:00,62.4,9.2,30.46,North,350,4.0,0.0,12,0.00,,,0.00,164,WeatherHawk,2013-05-12 12:39:00,
2013-05-12 07:44:00,62.9,11.4,30.46,East,82,2.0,0.0,13,0.00,,,0.00,179,WeatherHawk,2013-05-12 12:44:00,
2013-05-12 07:49:00,63.3,7.9,30.46,NE,38,4.0,0.0,11,0.00,,,0.00,195,WeatherHawk,2013-05-12 12:49:00,
2013-05-12 07:54:00,63.6,11.9,30.44,WSW,237,4.0,-999.0,13,0.00,,,0.00,211,WeatherHawk,2013-05-12 12:54:00,
2013-05-12 07:59:00,64.7,12.8,30.46,SSW,200,3.0,0.0,13,0.00,,,0.00,232,WeatherHawk,2013-05-12 12:59:00,
2013-05-12 08:04:00,63.1,7.7,30.45,East,95,3.0,0.0,11,0.00,,,0.00,245,WeatherHawk,2013-05-12 13:04:00,
2013-05-12 08:09:00,63.1,5.7,30.45,NNE,13,8.0,0.0,10,0.00,,,0.00,271,WeatherHawk,2013-05-12 13:09:00,
2013-05-12 08:14:00,63.8,10.2,30.46,ENE,63,7.0,0.0,12,0.00,,,0.00,286,WeatherHawk,2013-05-12 13:14:00,
2013-05-12 08:19:00,64.0,10.4,30.46,NNE,24,4.0,0.0,12,0.00,,,0.00,299,WeatherHawk,2013-05-12 13:19:00,
2013-05-12 08:24:00,63.7,6.1,30.46,ENE,63,8.0,0.0,10,0.00,,,0.00,323,WeatherHawk,2013-05-12 13:24:00,
2013-05-12 08:29:00,63.9,8.4,30.44,WNW,285,6.0,-999.0,11,0.00,,,0.00,327,WeatherHawk,2013-05-12 13:29:00,
2013-05-12 08:34:00,66.4,10.3,30.44,ENE,75,4.0,0.0,11,0.00,,,0.00,359,WeatherHawk,2013-05-12 13:34:00,
2013-05-12 08:39:00,64.2,4.2,30.45,NE,37,7.0,0.0,9,0.00,,,0.00,375,WeatherHawk,2013-05-12 13:39:00,
2013-05-12 08:44:00,65.0,4.8,30.46,NNE,19,7.0,0.0,9,0.00,,,0.00,347,WeatherHawk,2013-05-12 13:44:00,
2013-05-12 08:49:00,64.4,6.7,30.45,ENE,58,8.0,0.0,10,0.00,,,0.00,361,WeatherHawk,2013-05-12 13:49:00,
2013-05-12 08:54:00,64.1,6.5,30.46,NNW,335,10.0,0.0,10,0.00,,,0.00,349,WeatherHawk,2013-05-12 13:54:00,
2013-05-12 08:59:00,64.6,-0.9,30.45,ENE,66,9.0,-999.0,7,0.00,,,0.00,454,WeatherHawk,2013-05-12 13:59:00,
2013-05-12 09:04:00,65.5,-0.2,30.45,WNW,297,6.0,0.0,7,0.00,,,0.00,426,WeatherHawk,2013-05-12 14:04:00,
2013-05-12 09:09:00,65.2,-3.6,30.46,NNE,30,9.0,0.0,6,0.00,,,0.00,499,WeatherHawk,2013-05-12 14:09:00,
2013-05-12 09:14:00,66.4,3.4,30.45,ESE,112,5.0,0.0,8,0.00,,,0.00,511,WeatherHawk,2013-05-12 14:14:00,
2013-05-12 09:19:00,66.3,-2.9,30.46,SW,225,4.0,0.0,6,0.00,,,0.00,500,WeatherHawk,2013-05-12 14:19:00,
2013-05-12 09:24:00,66.7,0.7,30.46,West,274,6.0,0.0,7,0.00,,,0.00,498,WeatherHawk,2013-05-12 14:24:00,
2013-05-12 09:29:00,66.5,3.4,30.46,ENE,61,6.0,0.0,8,0.00,,,0.00,552,WeatherHawk,2013-05-12 14:29:00,
2013-05-12 09:34:00,66.7,0.7,30.45,NE,47,8.0,0.0,7,0.00,,,0.00,551,WeatherHawk,2013-05-12 14:34:00,
2013-05-12 09:39:00,68.1,4.6,30.45,East,95,4.0,0.0,8,0.00,,,0.00,578,WeatherHawk,2013-05-12 14:39:00,
2013-05-12 09:44:00,67.4,-2.1,30.45,ENE,71,6.0,0.0,6,0.00,,,0.00,595,WeatherHawk,2013-05-12 14:44:00,
2013-05-12 09:49:00,68.6,-1.2,30.45,NE,48,8.0,0.0,6,0.00,,,0.00,612,WeatherHawk,2013-05-12 14:49:00,
2013-05-12 09:54:00,66.5,-2.7,30.43,NE,52,11.0,-999.0,6,0.00,,,0.00,621,WeatherHawk,2013-05-12 14:54:00,
2013-05-12 09:59:00,66.7,0.7,30.44,ENE,57,8.0,0.0,7,0.00,,,0.00,644,WeatherHawk,2013-05-12 14:59:00,
2013-05-12 10:04:00,70.8,0.4,30.44,NE,50,2.0,0.0,6,0.00,,,0.00,662,WeatherHawk,2013-05-12 15:04:00,
2013-05-12 10:09:00,68.8,2.2,30.44,NNW,340,5.0,0.0,7,0.00,,,0.00,583,WeatherHawk,2013-05-12 15:09:00,
2013-05-12 10:14:00,68.7,2.2,30.45,North,0,5.0,0.0,7,0.00,,,0.00,696,WeatherHawk,2013-05-12 15:14:00,
2013-05-12 10:19:00,68.4,1.9,30.44,SE,141,6.0,0.0,7,0.00,,,0.00,703,WeatherHawk,2013-05-12 15:19:00,
2013-05-12 10:24:00,69.6,2.8,30.44,NE,40,6.0,0.0,7,0.00,,,0.00,733,WeatherHawk,2013-05-12 15:24:00,
2013-05-12 10:29:00,70.2,-0.1,30.42,NW,308,6.0,0.0,6,0.00,,,0.00,742,WeatherHawk,2013-05-12 15:29:00,
2013-05-12 10:34:00,69.9,3.0,30.43,SSE,157,0.0,0.0,7,0.00,,,0.00,687,WeatherHawk,2013-05-12 15:34:00,
2013-05-12 10:39:00,70.5,0.2,30.43,ENE,57,4.0,-999.0,6,0.00,,,0.00,755,WeatherHawk,2013-05-12 15:39:00,
2013-05-12 10:44:00,70.7,0.4,30.43,WSW,251,6.0,0.0,6,0.00,,,0.00,774,WeatherHawk,2013-05-12 15:44:00,
2013-05-12 10:49:00,70.8,0.4,30.43,SSE,163,6.0,0.0,6,0.00,,,0.00,790,WeatherHawk,2013-05-12 15:49:00,
2013-05-12 10:54:00,69.3,-0.7,30.43,North,4,2.0,0.0,6,0.00,,,0.00,796,WeatherHawk,2013-05-12 15:54:00,
2013-05-12 10:59:00,72.0,4.6,30.44,West,278,4.0,0.0,7,0.00,,,0.00,862,WeatherHawk,2013-05-12 15:59:00,
2013-05-12 11:04:00,68.4,1.9,30.44,ESE,107,8.0,0.0,7,0.00,,,0.00,888,WeatherHawk,2013-05-12 16:04:00,
2013-05-12 11:09:00,69.9,3.1,30.43,North,7,5.0,0.0,7,0.00,,,0.00,798,WeatherHawk,2013-05-12 16:09:00,
2013-05-12 11:14:00,71.3,4.1,30.43,WNW,284,4.0,-999.0,7,0.00,,,0.00,869,WeatherHawk,2013-05-12 16:14:00,
2013-05-12 11:19:00,69.4,2.7,30.44,NE,40,1.0,0.0,7,0.00,,,0.00,850,WeatherHawk,2013-05-12 16:19:00,
2013-05-12 11:24:00,69.8,3.0,30.44,NNE,20,8.0,-999.0,7,0.00,,,0.00,811,WeatherHawk,2013-05-12 16:24:00,
2013-05-12 11:29:00,70.3,3.3,30.43,SW,225,5.0,0.0,7,0.00,,,0.00,884,WeatherHawk,2013-05-12 16:29:00,
2013-05-12 11:34:00,69.1,2.4,30.43,East,91,4.0,0.0,7,0.00,,,0.00,890,WeatherHawk,2013-05-12 16:34:00,
2013-05-12 11:39:00,68.9,-1.0,30.43,NNE,23,6.0,0.0,6,0.00,,,0.00,901,WeatherHawk,2013-05-12 16:39:00,
2013-05-12 11:44:00,73.2,-6.4,30.42,North,9,2.0,0.0,4,0.00,,,0.00,910,WeatherHawk,2013-05-12 16:44:00,
2013-05-12 11:49:00,73.5,-6.2,30.43,NE,53,0.0,-999.0,4,0.00,,,0.00,935,WeatherHawk,2013-05-12 16:49:00,
2013-05-12 11:54:00,70.5,-8.2,30.43,SE,146,5.0,0.0,4,0.00,,,0.00,951,WeatherHawk,2013-05-12 16:54:00,
2013-05-12 11:59:00,70.6,-8.2,30.41,SE,126,4.0,0.0,4,0.00,,,0.00,876,WeatherHawk,2013-05-12 16:59:00,
2013-05-12 12:04:00,71.3,-7.7,30.43,SE,140,6.0,0.0,4,0.00,,,0.00,904,WeatherHawk,2013-05-12 17:04:00,
2013-05-12 12:09:00,73.4,-6.3,30.43,NNE,25,2.0,0.0,4,0.00,,,0.00,956,WeatherHawk,2013-05-12 17:09:00,
2013-05-12 12:14:00,75.8,-4.6,30.43,NNE,22,2.0,0.0,4,0.00,,,0.00,966,WeatherHawk,2013-05-12 17:14:00,
2013-05-12 12:19:00,72.4,-7.0,30.41,South,175,6.0,0.0,4,0.00,,,0.00,1002,WeatherHawk,2013-05-12 17:19:00,
2013-05-12 12:24:00,69.8,-8.7,30.41,SSE,147,6.0,0.0,4,0.00,,,0.00,952,WeatherHawk,2013-05-12 17:24:00,
2013-05-12 12:29:00,73.6,-6.1,30.41,NE,45,6.0,0.0,4,0.00,,,0.00,1034,WeatherHawk,2013-05-12 17:29:00,
2013-05-12 12:34:00,73.3,-6.3,30.41,SSE,153,7.0,-999.0,4,0.00,,,0.00,654,WeatherHawk,2013-05-12 17:34:00,
2013-05-12 12:39:00,74.8,-5.3,30.41,East,98,0.0,0.0,4,0.00,,,0.00,1018,WeatherHawk,2013-05-12 17:39:00,
2013-05-12 12:44:00,75.2,-5.0,30.40,NNW,336,3.0,0.0,4,0.00,,,0.00,1024,WeatherHawk,2013-05-12 17:44:00,
2013-05-12 12:49:00,74.5,-5.5,30.39,SSW,196,5.0,-999.0,4,0.00,,,0.00,1026,WeatherHawk,2013-05-12 17:49:00,
2013-05-12 12:54:00,73.2,-6.4,30.40,NE,38,2.0,-999.0,4,0.00,,,0.00,733,WeatherHawk,2013-05-12 17:54:00,
2013-05-12 12:59:00,72.4,-6.9,30.39,NNE,12,3.0,-999.0,4,0.00,,,0.00,1041,WeatherHawk,2013-05-12 17:59:00,
2013-05-12 13:04:00,76.8,-3.9,30.39,NW,317,4.0,0.0,4,0.00,,,0.00,1045,WeatherHawk,2013-05-12 18:04:00,
2013-05-12 13:09:00,75.8,-4.6,30.39,East,94,2.0,-999.0,4,0.00,,,0.00,995,WeatherHawk,2013-05-12 18:09:00,
2013-05-12 13:14:00,82.2,-0.2,30.40,ESE,104,0.0,0.0,4,0.00,,,0.00,1043,WeatherHawk,2013-05-12 18:14:00,
2013-05-12 13:19:00,72.6,-6.8,30.38,ESE,119,3.0,0.0,4,0.00,,,0.00,931,WeatherHawk,2013-05-12 18:19:00,
2013-05-12 13:24:00,72.0,-7.2,30.40,SE,141,7.0,-999.0,4,0.00,,,0.00,1021,WeatherHawk,2013-05-12 18:24:00,
2013-05-12 13:29:00,75.2,-5.0,30.39,ESE,111,4.0,0.0,4,0.00,,,0.00,882,WeatherHawk,2013-05-12 18:29:00,
2013-05-12 13:34:00,79.0,-2.4,30.39,NW,320,0.0,-999.0,4,0.00,,,0.00,580,WeatherHawk,2013-05-12 18:34:00,
2013-05-12 13:39:00,74.8,-5.3,30.39,NNW,339,0.0,0.0,4,0.00,,,0.00,600,WeatherHawk,2013-05-12 18:39:00,
2013-05-12 13:44:00,77.9,-3.2,30.39,NNE,27,0.0,-999.0,4,0.00,,,0.00,679,WeatherHawk,2013-05-12 18:44:00,
2013-05-12 13:49:00,76.6,-4.1,30.39,NW,309,1.0,0.0,4,0.00,,,0.00,637,WeatherHawk,2013-05-12 18:49:00,
2013-05-12 13:54:00,74.9,-5.2,30.39,East,91,4.0,0.0,4,0.00,,,0.00,1148,WeatherHawk,2013-05-12 18:54:00,
2013-05-12 13:59:00,81.2,-0.9,30.39,SE,138,0.0,-999.0,4,0.00,,,0.00,585,WeatherHawk,2013-05-12 18:59:00,
2013-05-12 14:04:00,78.0,-3.1,30.39,ESE,114,0.0,0.0,4,0.00,,,0.00,654,WeatherHawk,2013-05-12 19:04:00,
2013-05-12 14:09:00,79.7,-1.9,30.38,West,259,2.0,0.0,4,0.00,,,0.00,865,WeatherHawk,2013-05-12 19:09:00,
2013-05-12 14:14:00,74.5,-5.5,30.38,NNE,24,2.0,0.0,4,0.00,,,0.00,1127,WeatherHawk,2013-05-12 19:14:00,
2013-05-12 14:19:00,75.4,-4.9,30.36,NNE,16,6.0,-999.0,4,0.00,,,0.00,1116,WeatherHawk,2013-05-12 19:19:00,
2013-05-12 14:24:00,74.7,-5.3,30.37,West,279,4.0,0.0,4,0.00,,,0.00,1179,WeatherHawk,2013-05-12 19:24:00,
2013-05-12 14:29:00,77.0,-3.7,30.37,NNE,19,3.0,0.0,4,0.00,,,0.00,818,WeatherHawk,2013-05-12 19:29:00,
2013-05-12 14:34:00,89.9,5.1,30.37,SSW,207,0.0,0.0,4,0.00,,,0.00,1136,WeatherHawk,2013-05-12 19:34:00,
2013-05-12 14:39:00,82.2,-0.2,30.35,NNE,13,0.0,0.0,4,0.00,,,0.00,961,WeatherHawk,2013-05-12 19:39:00,
2013-05-12 14:44:00,73.7,-6.0,30.36,NNE,23,6.0,0.0,4,0.00,,,0.00,528,WeatherHawk,2013-05-12 19:44:00,
2013-05-12 14:49:00,74.2,-1.0,30.34,NE,51,3.0,-999.0,5,0.00,,,0.00,495,WeatherHawk,2013-05-12 19:49:00,
2013-05-12 14:54:00,78.5,-2.7,30.35,NNW,332,1.0,0.0,4,0.00,,,0.00,819,WeatherHawk,2013-05-12 19:54:00,
2013-05-12 14:59:00,77.5,-3.4,30.35,NNE,18,3.0,-999.0,4,0.00,,,0.00,960,WeatherHawk,2013-05-12 19:59:00,
2013-05-12 15:04:00,77.0,0.9,30.34,NE,54,4.0,0.0,5,0.00,,,0.00,1018,WeatherHawk,2013-05-12 20:04:00,
2013-05-12 15:09:00,76.4,0.5,30.35,ENE,59,2.0,0.0,5,0.00,,,0.00,1001,WeatherHawk,2013-05-12 20:09:00,
2013-05-12 15:14:00,78.6,-2.7,30.34,NNE,15,0.0,0.0,4,0.00,,,0.00,966,WeatherHawk,2013-05-12 20:14:00,
2013-05-12 15:19:00,76.0,-4.4,30.34,NNW,330,2.0,-999.0,4,0.00,,,0.00,935,WeatherHawk,2013-05-12 20:19:00,
2013-05-12 15:24:00,77.6,1.3,30.33,NNW,338,4.0,0.0,5,0.00,,,0.00,901,WeatherHawk,2013-05-12 20:24:00,
2013-05-12 15:29:00,76.5,0.6,30.33,NE,56,6.0,0.0,5,0.00,,,0.00,897,WeatherHawk,2013-05-12 20:29:00,
2013-05-12 15:34:00,77.3,1.1,30.33,NNE,27,9.0,0.0,5,0.00,,,0.00,880,WeatherHawk,2013-05-12 20:34:00,
2013-05-12 15:39:00,77.3,1.1,30.32,NW,315,3.0,0.0,5,0.00,,,0.00,867,WeatherHawk,2013-05-12 20:39:00,
2013-05-12 15:44:00,80.1,3.1,30.33,NNE,33,1.0,0.0,5,0.00,,,0.00,866,WeatherHawk,2013-05-12 20:44:00,
2013-05-12 15:49:00,77.2,-9.6,30.32,SSE,148,4.0,0.0,3,0.00,,,0.00,865,WeatherHawk,2013-05-12 20:49:00,
2013-05-12 15:54:00,80.0,3.0,30.34,NW,322,4.0,0.0,5,0.00,,,0.00,884,WeatherHawk,2013-05-12 20:54:00,
2013-05-12 15:59:00,78.1,-3.0,30.34,ENE,63,3.0,0.0,4,0.00,,,0.00,822,WeatherHawk,2013-05-12 20:59:00,
2013-05-12 16:04:00,76.4,-4.2,30.33,East,101,3.0,0.0,4,0.00,,,0.00,737,WeatherHawk,2013-05-12 21:04:00,
2013-05-12 16:09:00,78.1,-3.0,30.33,South,180,0.0,0.0,4,0.00,,,0.00,587,WeatherHawk,2013-05-12 21:09:00,
2013-05-12 16:14:00,78.9,-2.4,30.34,SSE,164,1.0,-999.0,4,0.00,,,0.00,608,WeatherHawk,2013-05-12 21:14:00,
2013-05-12 16:19:00,81.5,4.1,30.32,NNE,26,0.0,0.0,5,0.00,,,0.00,509,WeatherHawk,2013-05-12 21:19:00,
2013-05-12 16:24:00,81.6,4.1,30.32,SW,225,0.0,0.0,5,0.00,,,0.00,520,WeatherHawk,2013-05-12 21:24:00,
2013-05-12 16:29:00,80.2,3.2,30.34,North,349,0.0,0.0,5,0.00,,,0.00,620,WeatherHawk,2013-05-12 21:29:00,
2013-05-12 16:34:00,76.8,0.8,30.31,North,7,7.0,-999.0,5,0.00,,,0.00,582,WeatherHawk,2013-05-12 21:34:00,
2013-05-12 16:39:00,78.8,2.2,30.32,ESE,121,3.0,0.0,5,0.00,,,0.00,650,WeatherHawk,2013-05-12 21:39:00,
2013-05-12 16:44:00,77.0,1.0,30.32,NE,49,4.0,0.0,5,0.00,,,0.00,600,WeatherHawk,2013-05-12 21:44:00,
2013-05-12 16:49:00,78.5,2.0,30.33,North,351,2.0,0.0,5,0.00,,,0.00,583,WeatherHawk,2013-05-12 21:49:00,
2013-05-12 16:54:00,78.1,1.7,30.32,SE,138,5.0,-999.0,5,0.00,,,0.00,558,WeatherHawk,2013-05-12 21:54:00,
2013-05-12 16:59:00,76.9,0.9,30.32,NE,44,4.0,0.0,5,0.00,,,0.00,585,WeatherHawk,2013-05-12 21:59:00,
2013-05-12 17:04:00,80.0,3.1,30.31,ESE,108,3.0,-999.0,5,0.00,,,0.00,577,WeatherHawk,2013-05-12 22:04:00,
2013-05-12 17:09:00,79.7,2.8,30.32,SSW,203,0.0,0.0,5,0.00,,,0.00,535,WeatherHawk,2013-05-12 22:09:00,
2013-05-12 17:14:00,79.3,2.5,30.32,East,93,0.0,0.0,5,0.00,,,0.00,561,WeatherHawk,2013-05-12 22:14:00,
2013-05-12 17:19:00,78.2,1.7,30.31,SSE,149,3.0,0.0,5,0.00,,,0.00,530,WeatherHawk,2013-05-12 22:19:00,
2013-05-12 17:24:00,77.3,1.2,30.32,SSE,155,3.0,0.0,5,0.00,,,0.00,349,WeatherHawk,2013-05-12 22:24:00,
2013-05-12 17:29:00,77.2,1.1,30.31,ESE,117,5.0,-999.0,5,0.00,,,0.00,616,WeatherHawk,2013-05-12 22:29:00,
2013-05-12 17:34:00,80.6,3.4,30.30,SSE,152,0.0,0.0,5,0.00,,,0.00,459,WeatherHawk,2013-05-12 22:34:00,
2013-05-12 17:39:00,77.8,1.5,30.31,ENE,63,1.0,0.0,5,0.00,,,0.00,489,WeatherHawk,2013-05-12 22:39:00,
2013-05-12 17:44:00,78.3,1.9,30.31,East,89,4.0,0.0,5,0.00,,,0.00,447,WeatherHawk,2013-05-12 22:44:00,
2013-05-12 17:49:00,78.6,2.1,30.31,ESE,107,3.0,-999.0,5,0.00,,,0.00,488,WeatherHawk,2013-05-12 22:49:00,
2013-05-12 17:54:00,76.8,0.8,30.31,ESE,104,5.0,0.0,5,0.00,,,0.00,350,WeatherHawk,2013-05-12 22:54:00,
2013-05-12 17:59:00,77.4,1.2,30.31,SE,144,5.0,0.0,5,0.00,,,0.00,493,WeatherHawk,2013-05-12 22:59:00,
2013-05-12 18:04:00,77.4,1.2,30.30,NE,55,4.0,-999.0,5,0.00,,,0.00,459,WeatherHawk,2013-05-12 23:04:00,
2013-05-12 18:09:00,77.2,1.1,30.32,ESE,115,2.0,0.0,5,0.00,,,0.00,300,WeatherHawk,2013-05-12 23:09:00,
2013-05-12 18:14:00,76.9,0.8,30.31,ENE,75,3.0,0.0,5,0.00,,,0.00,267,WeatherHawk,2013-05-12 23:14:00,
2013-05-12 18:19:00,78.4,1.9,30.31,NNE,15,2.0,0.0,5,0.00,,,0.00,287,WeatherHawk,2013-05-12 23:19:00,
2013-05-12 18:24:00,77.3,1.1,30.31,ENE,73,0.0,-999.0,5,0.00,,,0.00,288,WeatherHawk,2013-05-12 23:24:00,
2013-05-12 18:29:00,78.6,2.1,30.31,SSW,195,0.0,0.0,5,0.00,,,0.00,295,WeatherHawk,2013-05-12 23:29:00,
2013-05-12 18:34:00,76.9,0.9,30.31,NE,38,2.0,0.0,5,0.00,,,0.00,270,WeatherHawk,2013-05-12 23:34:00,
2013-05-12 18:39:00,76.6,0.7,30.31,SSE,159,1.0,-999.0,5,0.00,,,0.00,153,WeatherHawk,2013-05-12 23:39:00,
2013-05-12 18:44:00,76.7,0.7,30.30,South,174,5.0,0.0,5,0.00,,,0.00,182,WeatherHawk,2013-05-12 23:44:00,
2013-05-12 18:49:00,76.7,0.7,30.30,ENE,64,2.0,0.0,5,0.00,,,0.00,175,WeatherHawk,2013-05-12 23:49:00,
2013-05-12 18:54:00,76.7,0.7,30.31,NNE,26,0.0,0.0,5,0.00,,,0.00,150,WeatherHawk,2013-05-12 23:54:00,
2013-05-12 18:59:00,76.4,0.5,30.30,South,182,2.0,0.0,5,0.00,,,0.00,138,WeatherHawk,2013-05-12 23:59:00,
2013-05-12 19:04:00,75.9,0.2,30.31,ESE,105,0.0,0.0,5,0.00,,,0.00,127,WeatherHawk,2013-05-13 00:04:00,
2013-05-12 19:09:00,75.8,0.1,30.32,ESE,105,0.0,0.0,5,0.00,,,0.00,96,WeatherHawk,2013-05-13 00:09:00,
2013-05-12 19:14:00,75.4,-0.2,30.32,ESE,108,3.0,-999.0,5,0.00,,,0.00,98,WeatherHawk,2013-05-13 00:14:00,
2013-05-12 19:19:00,75.5,-0.1,30.31,East,100,0.0,0.0,5,0.00,,,0.00,142,WeatherHawk,2013-05-13 00:19:00,
2013-05-12 19:24:00,75.2,-0.3,30.32,SE,125,3.0,0.0,5,0.00,,,0.00,82,WeatherHawk,2013-05-13 00:24:00,
2013-05-12 19:29:00,75.2,-0.3,30.31,ESE,114,0.0,0.0,5,0.00,,,0.00,74,WeatherHawk,2013-05-13 00:29:00,
2013-05-12 19:34:00,75.0,-5.1,30.32,SSE,151,2.0,0.0,4,0.00,,,0.00,103,WeatherHawk,2013-05-13 00:34:00,
2013-05-12 19:39:00,74.9,-5.2,30.33,SSW,193,3.0,0.0,4,0.00,,,0.00,69,WeatherHawk,2013-05-13 00:39:00,
2013-05-12 19:44:00,74.8,-5.3,30.32,ESE,107,2.0,-999.0,4,0.00,,,0.00,97,WeatherHawk,2013-05-13 00:44:00,
2013-05-12 19:49:00,74.6,9.4,30.31,ESE,109,1.0,0.0,8,0.00,,,0.00,38,WeatherHawk,2013-05-13 00:49:00,
2013-05-12 19:54:00,74.4,9.3,30.31,SE,131,4.0,0.0,8,0.00,,,0.00,43,WeatherHawk,2013-05-13 00:54:00,
2013-05-12 19:59:00,74.1,9.0,30.31,ESE,104,1.0,0.0,8,0.00,,,0.00,38,WeatherHawk,2013-05-13 00:59:00,
2013-05-12 20:04:00,73.8,8.9,30.31,SE,134,4.0,-999.0,8,0.00,,,0.00,29,WeatherHawk,2013-05-13 01:04:00,
2013-05-12 20:09:00,73.5,8.6,30.32,ESE,121,4.0,-999.0,8,0.00,,,0.00,18,WeatherHawk,2013-05-13 01:09:00,
2013-05-12 20:14:00,73.2,5.5,30.32,SE,128,4.0,0.0,7,0.00,,,0.00,7,WeatherHawk,2013-05-13 01:14:00,
2013-05-12 20:19:00,72.8,5.1,30.32,SE,129,3.0,-999.0,7,0.00,,,0.00,5,WeatherHawk,2013-05-13 01:19:00,
2013-05-12 20:24:00,72.7,5.1,30.31,ESE,123,3.0,0.0,7,0.00,,,0.00,5,WeatherHawk,2013-05-13 01:24:00,
2013-05-12 20:29:00,72.7,5.1,30.32,SE,135,4.0,0.0,7,0.00,,,0.00,2,WeatherHawk,2013-05-13 01:29:00,
2013-05-12 20:34:00,72.2,4.7,30.32,SE,129,2.0,0.0,7,0.00,,,0.00,1,WeatherHawk,2013-05-13 01:34:00,
2013-05-12 20:39:00,72.0,1.3,30.32,ESE,120,2.0,0.0,6,0.00,,,0.00,0,WeatherHawk,2013-05-13 01:39:00,
2013-05-12 20:44:00,71.5,0.9,30.32,SE,125,2.0,0.0,6,0.00,,,0.00,0,WeatherHawk,2013-05-13 01:44:00,
2013-05-12 20:49:00,72.2,1.4,30.33,ESE,121,2.0,0.0,6,0.00,,,0.00,0,WeatherHawk,2013-05-13 01:49:00,
2013-05-12 20:54:00,71.1,6.8,30.33,ESE,120,1.0,0.0,8,0.00,,,0.00,1,WeatherHawk,2013-05-13 01:54:00,
2013-05-12 20:59:00,70.9,3.8,30.33,SE,126,2.0,0.0,7,0.00,,,0.00,0,WeatherHawk,2013-05-13 01:59:00,
2013-05-12 21:04:00,70.4,0.1,30.34,ESE,121,0.0,-999.0,6,0.00,,,0.00,1,WeatherHawk,2013-05-13 02:04:00,
2013-05-12 21:09:00,70.6,3.6,30.33,SE,142,1.0,0.0,7,0.00,,,0.00,0,WeatherHawk,2013-05-13 02:09:00,
2013-05-12 21:14:00,70.3,0.0,30.33,SE,135,3.0,0.0,6,0.00,,,0.00,0,WeatherHawk,2013-05-13 02:14:00,
2013-05-12 21:19:00,70.1,8.7,30.35,SE,136,3.0,0.0,9,0.00,,,0.00,0,WeatherHawk,2013-05-13 02:19:00,
2013-05-12 21:24:00,71.1,6.8,30.34,SSE,151,4.0,-999.0,8,0.00,,,0.00,1,WeatherHawk,2013-05-13 02:24:00,
2013-05-12 21:29:00,70.6,6.4,30.34,SE,146,4.0,0.0,8,0.00,,,0.00,0,WeatherHawk,2013-05-13 02:29:00,
2013-05-12 21:34:00,70.5,3.5,30.34,SSE,152,5.0,0.0,7,0.00,,,0.00,1,WeatherHawk,2013-05-13 02:34:00,
2013-05-12 21:39:00,70.2,-0.1,30.34,South,171,2.0,0.0,6,0.00,,,0.00,0,WeatherHawk,2013-05-13 02:39:00,
2013-05-12 21:44:00,70.0,6.0,30.36,SSE,156,5.0,-999.0,8,0.00,,,0.00,2,WeatherHawk,2013-05-13 02:44:00,
2013-05-12 21:49:00,69.6,2.8,30.35,SSE,164,5.0,0.0,7,0.00,,,0.00,0,WeatherHawk,2013-05-13 02:49:00,
2013-05-12 21:54:00,69.4,10.5,30.36,SSE,163,2.0,-999.0,10,0.00,,,0.00,0,WeatherHawk,2013-05-13 02:54:00,
2013-05-12 21:59:00,69.4,8.1,30.35,South,174,2.0,0.0,9,0.00,,,0.00,0,WeatherHawk,2013-05-13 02:59:00,
2013-05-12 22:04:00,69.1,10.3,30.36,South,170,4.0,-999.0,10,0.00,,,0.00,0,WeatherHawk,2013-05-13 03:04:00,
2013-05-12 22:09:00,69.0,7.8,30.36,South,171,5.0,0.0,9,0.00,,,0.00,1,WeatherHawk,2013-05-13 03:09:00,
2013-05-12 22:14:00,68.5,7.5,30.36,South,190,5.0,-999.0,9,0.00,,,0.00,0,WeatherHawk,2013-05-13 03:14:00,
2013-05-12 22:19:00,68.9,12.3,30.36,SSE,156,6.0,0.0,11,0.00,,,0.00,1,WeatherHawk,2013-05-13 03:19:00,
2013-05-12 22:24:00,68.6,12.0,30.37,SSE,155,6.0,-999.0,11,0.00,,,0.00,0,WeatherHawk,2013-05-13 03:24:00,
2013-05-12 22:29:00,68.4,11.9,30.37,South,169,3.0,0.0,11,0.00,,,0.00,0,WeatherHawk,2013-05-13 03:29:00,
2013-05-12 22:34:00,68.1,7.1,30.37,South,180,5.0,0.0,9,0.00,,,0.00,0,WeatherHawk,2013-05-13 03:34:00,
2013-05-12 22:39:00,68.0,11.6,30.37,South,182,5.0,0.0,11,0.00,,,0.00,0,WeatherHawk,2013-05-13 03:39:00,
2013-05-12 22:44:00,68.1,11.6,30.37,SE,143,4.0,0.0,11,0.00,,,0.00,1,WeatherHawk,2013-05-13 03:44:00,
2013-05-12 22:49:00,67.8,11.4,30.38,SSE,163,5.0,0.0,11,0.00,,,0.00,0,WeatherHawk,2013-05-13 03:49:00,
2013-05-12 22:54:00,67.8,13.4,30.38,SE,138,5.0,0.0,12,0.00,,,0.00,0,WeatherHawk,2013-05-13 03:54:00,
2013-05-12 22:59:00,67.6,11.3,30.38,South,171,3.0,0.0,11,0.00,,,0.00,0,WeatherHawk,2013-05-13 03:59:00,
2013-05-12 23:01:00,67.2,10.9,30.38,South,170,4.0,0.0,11,0.00,,,0.00,0,WeatherHawk,2013-05-13 04:01:00,
2013-05-12 23:02:00,67.6,11.2,30.38,SSE,148,5.0,0.0,11,0.00,,,0.00,1,WeatherHawk,2013-05-13 04:02:00,
2013-05-12 23:03:00,67.4,11.1,30.38,SSE,148,5.0,0.0,11,0.00,,,0.00,1,WeatherHawk,2013-05-13 04:03:00,
2013-05-12 23:04:00,67.0,10.7,30.39,ESE,114,3.0,0.0,11,0.00,,,0.00,0,WeatherHawk,2013-05-13 04:04:00,
2013-05-12 23:09:00,67.3,11.0,30.38,SE,132,4.0,0.0,11,0.00,,,0.00,0,WeatherHawk,2013-05-13 04:09:00,
2013-05-12 23:14:00,67.3,11.0,30.39,South,170,4.0,0.0,11,0.00,,,0.00,0,WeatherHawk,2013-05-13 04:14:00,
2013-05-12 23:19:00,66.8,14.4,30.39,SSE,168,0.0,0.0,13,0.00,,,0.00,0,WeatherHawk,2013-05-13 04:19:00,
2013-05-12 23:24:00,66.5,12.3,30.38,SSE,167,0.0,-999.0,12,0.00,,,0.00,0,WeatherHawk,2013-05-13 04:24:00,
2013-05-12 23:29:00,66.7,14.3,30.37,South,171,2.0,0.0,13,0.00,,,0.00,0,WeatherHawk,2013-05-13 04:29:00,
2013-05-12 23:34:00,66.1,15.6,30.39,South,171,0.0,-999.0,14,0.00,,,0.00,1,WeatherHawk,2013-05-13 04:34:00,
2013-05-12 23:39:00,66.1,13.8,30.39,SSE,159,0.0,0.0,13,0.00,,,0.00,0,WeatherHawk,2013-05-13 04:39:00,
2013-05-12 23:44:00,66.2,15.6,30.39,SE,129,0.0,0.0,14,0.00,,,0.00,0,WeatherHawk,2013-05-13 04:44:00,
2013-05-12 23:49:00,65.5,16.6,30.39,South,171,0.0,0.0,15,0.00,,,0.00,0,WeatherHawk,2013-05-13 04:49:00,
2013-05-12 23:54:00,66.3,17.2,30.39,SSE,151,1.0,0.0,15,0.00,,,0.00,1,WeatherHawk,2013-05-13 04:54:00,
2013-05-12 23:59:00,65.5,16.7,30.40,SSE,158,1.0,0.0,15,0.00,,,0.00,1,WeatherHawk,2013-05-13 04:59:00,